Weather Roundup
Issued by NWS

Home | Current Version | Previous Version | Graphics & Text | Print | Product List | Glossary Off
Versions: 1 2 3 4 5 6 7 8 9 10 11 12 13 14 15 16 17 18 19 20 21 22 23 24 25 26 27 28 29 30 31 32 33 34 35 36 37 38 39 40 41 42 43 44 45 46 47 48 49 50

000
NZUS93 KARX 291510
HRRWXR

CURRENT HOURLY OBSERVATIONS ACROSS
MUCH OF THE UPPER MISSISSIPPI VALLEY
NATIONAL WEATHER SERVICE LA CROSSE WI
1000 AM CDT WED OCT 29 2014


...SOUTHEAST MINNESOTA...


CITY           SKY/WX    TMP DP  RH WIND       PRES   REMARKS
ROCHESTER      CLOUDY    38  30  73 NW10      30.14R WCI  31
ROCHESTER/MAYO CLOUDY    38  29  72 NW10G16   30.14R WCI  31
WINONA         CLOUDY    41  32  70 NW9       30.13R
AUSTIN         CLOUDY    37  30  75 NW12      30.15R WCI  30
ALBERT LEA     CLOUDY    37  30  75 NW7       30.16R WCI  32
DODGE CENTER   CLOUDY    37  32  81 NW10      30.14R WCI  30
PRESTON        CLOUDY    37  31  80 NW9       30.13R WCI  30
OWATONNA       SUNNY     37  30  75 NW10      30.17R WCI  30
FARIBAULT      CLOUDY    37  30  75 W8        30.16R WCI  31
$$

...ELSEWHERE IN MINNESOTA...


CITY           SKY/WX    TMP DP  RH WIND       PRES   REMARKS
MINNEAPOLIS    CLOUDY    39  30  70 NW9       30.15R WCI  33
INTNL FALLS    CLOUDY    36  35  96 W6        30.04R WCI  31
DULUTH         PTSUNNY   37  32  82 NW17      30.05R WCI  27
RED WING       CLOUDY    39  30  70 NW5       30.14R
REDWOOD FALLS  CLOUDY    38  29  70 NW6       30.18S WCI  33
MANKATO        CLOUDY    37  27  65 NW10      30.17S WCI  30
WORTHINGTON    SUNNY     37  30  75 NW8       30.19S WCI  31
FAIRMONT       CLOUDY    39  27  60 NW12      30.18R WCI  32
$$

...SOUTHWEST WISCONSIN...


CITY           SKY/WX    TMP DP  RH WIND       PRES   REMARKS
LA CROSSE      CLOUDY    44  32  62 NW12      30.11R
PRAIRIE DU CHI CLOUDY    42  30  61 NW13      30.12R
BOSCOBEL       CLOUDY    45  32  60 NW7       30.11R
LONE ROCK      CLOUDY    47  30  51 NW13      30.09R
PLATTEVILLE    CLOUDY    43  32  65 NW3G18    30.10R
FORT MC COY    CLOUDY    41  31  68 W7        30.11R
CAMP DOUGLAS   CLOUDY    41  34  75 NW10      30.08R
VIROQUA        CLOUDY    40  32  72 NW10      30.09R WCI  33
WIS DELLS      CLOUDY    41  30  65 NW9       30.07R
$$

...ELSEWHERE IN WISCONSIN...


CITY           SKY/WX    TMP DP  RH WIND       PRES   REMARKS
MILWAUKEE      PTSUNNY   45  31  58 NW16      30.02R
MADISON        CLOUDY    43  31  62 NW8G22    30.07R
GREEN BAY      PTSUNNY   45  35  68 NW14      29.99S
EAU CLAIRE     CLOUDY    40  31  70 NW9       30.10R WCI  34
BLACK RVR FLS  CLOUDY    41  30  65 NW9       30.09R
MEDFORD        CLOUDY    37  33  87 NW12      30.04R WCI  29
WAUSAU         CLOUDY    39  32  76 NW10G18   30.02R WCI  32
WIS RAPIDS     CLOUDY    40  31  70 NW15      30.07R WCI  32
MARSHFIELD     CLOUDY    40  32  73 NW16      30.05R WCI  31
RICE LAKE      CLOUDY    38  32  79 NW6       30.11R WCI  33
$$

...NORTHEAST IOWA...


CITY           SKY/WX    TMP DP  RH WIND       PRES   REMARKS
DECORAH        CLOUDY    39  32  75 NW7G14    30.12R WCI  34
MASON CITY     MOSUNNY   38  29  70 NW16G29   30.18R WCI  29
CHARLES CITY   MOSUNNY   39  30  70 NW15      30.16R WCI  31
OELWEIN        CLOUDY    39  30  70 NW14G24   30.15R WCI  31
$$

...ELSEWHERE IN IOWA...


CITY           SKY/WX    TMP DP  RH WIND       PRES   REMARKS
DES MOINES     CLOUDY    46  31  55 N10       30.21R
IOWA CITY      MOSUNNY   44  33  65 NW20G29   30.17R
FORT DODGE     CLOUDY    41  30  65 N7        30.20S
$$

...NORTHERN ILLINOIS...


CITY           SKY/WX    TMP DP  RH WIND       PRES   REMARKS
CHICAGO-OHARE  CLOUDY    45  30  55 W16       30.05R
CHICAGO-MIDWAY CLOUDY    46  31  55 NW18      30.06R
MOLINE         PTSUNNY   45  33  63 NW10      30.13R
ROCKFORD       CLOUDY    44  31  60 NW15      30.09R
PEORIA         SUNNY     48  33  56 NW14G20   30.14R
$$

NOTE: "FAIR" INDICATES FEW OR NO CLOUDS BELOW 12,000 FEET WITH NO
SIGNIFICANT WEATHER AND/OR OBSTRUCTIONS TO VISIBILITY. WIND
SPEEDS ARE IN MILES-PER-HOUR.



USA.gov is the U.S. government's official web portal to all federal, state and local government web resources and services.